Weather History for Pompano Beach, FL

Change the Weather History Date:

Tuesday, February 26, 2013

  Actual Average Record
Temperature  
Mean Temperature 80 °F -  
Max Temperature 84 °F 77 °F 88 °F (1959)
Min Temperature 75 °F 56 °F 36 °F (1967)
Cooling Degree Days 14    
Growing Degree Days 30 (Base 50)    
Moisture  
Dew Point 72 °F    
Average Humidity 81    
Maximum Humidity 94    
Minimum Humidity 60    
Precipitation  
Precipitation 0.00 in - - ()
Sea Level Pressure  
Sea Level Pressure 29.86 in    
Wind  
Wind Speed 12 mph (South)    
Max Wind Speed 20 mph    
Max Gust Speed 26 mph    
Visibility 10 miles    
Events      
Averages and records for this station are not official NWS values.
T = Trace of Precipitation, MM = Missing Value Source: NWS Daily Summary

Daily Weather History Graph

Daily Weather History Graph

Search for Another Location

Airport:

Trip Planner

Search our weather history database for the weather conditions in past years. The results will help you decide how hot, cold, wet, or windy it might be!

Date:

Astronomy

Feb. 26, 2013 Rise Set
Actual Time 6:46 AM EST 6:20 PM EST
Civil Twilight 6:23 AM EST 6:43 PM EST
Nautical Twilight 5:56 AM EST 7:10 PM EST
Astronomical Twilight 5:29 AM EST 7:37 PM EST
Moon 7:22 PM EST (2/26) 6:57 AM EST (2/26)
Length of Visible Light 12h 20m
Length of Day
11h 33m
Full, 99% of the Moon is Illuminated
Feb 26
Full
Mar 4
Last Quarter
Mar 11
New
Mar 19
First Quarter
Mar 27
Full

Hourly Weather History & Observations

Time (EST) Temp. Heat Index Dew Point Humidity Pressure Visibility Wind Dir Wind Speed Gust Speed Precip Events Conditions
12:53 AM 75.9 °F - 73.0 °F 91% 29.86 in 10.0 mi South 10.4 mph - N/A   Partly Cloudy
1:53 AM 75.9 °F - 71.1 °F 85% 29.84 in 10.0 mi South 10.4 mph - N/A   Mostly Cloudy
2:53 AM 75.9 °F - 72.0 °F 87% 29.83 in 10.0 mi South 12.7 mph - N/A   Clear
3:25 AM 75.2 °F - 73.4 °F 94% 29.81 in 10.0 mi South 15.0 mph 21.9 mph N/A   Mostly Cloudy
3:38 AM 75.2 °F - 73.4 °F 94% 29.81 in 10.0 mi South 12.7 mph 26.5 mph N/A   Scattered Clouds
3:53 AM 75.9 °F - 72.0 °F 87% 29.82 in 10.0 mi South 13.8 mph 20.7 mph N/A   Partly Cloudy
4:33 AM 75.2 °F - 71.6 °F 89% 29.82 in 10.0 mi South 12.7 mph 20.7 mph N/A   Mostly Cloudy
4:53 AM 75.9 °F - 73.0 °F 91% 29.83 in 10.0 mi South 11.5 mph - N/A   Overcast
5:25 AM 75.2 °F - 73.4 °F 94% 29.82 in 10.0 mi South 13.8 mph - N/A   Scattered Clouds
5:53 AM 75.9 °F - 72.0 °F 87% 29.83 in 10.0 mi South 11.5 mph - N/A   Partly Cloudy
6:53 AM 75.9 °F - 71.1 °F 85% 29.85 in 10.0 mi South 9.2 mph - N/A   Mostly Cloudy
7:25 AM 77.0 °F - 73.4 °F 89% 29.85 in 10.0 mi South 13.8 mph 18.4 mph N/A   Overcast
7:53 AM 77.0 °F - 73.0 °F 88% 29.87 in 9.0 mi South 10.4 mph - 0.00 in   Scattered Clouds
8:53 AM 79.0 °F - 71.1 °F 77% 29.88 in 10.0 mi South 10.4 mph - N/A   Mostly Cloudy
9:53 AM 81.0 °F 85.2 °F 72.0 °F 74% 29.89 in 10.0 mi SSE 16.1 mph 21.9 mph N/A   Partly Cloudy
10:53 AM 82.0 °F 86.7 °F 72.0 °F 71% 29.89 in 10.0 mi South 13.8 mph 23.0 mph N/A   Scattered Clouds
11:53 AM 80.1 °F 83.6 °F 71.1 °F 74% 29.90 in 10.0 mi South 13.8 mph 25.3 mph N/A   Mostly Cloudy
12:53 PM 82.0 °F 87.4 °F 73.0 °F 74% 29.89 in 10.0 mi SSE 13.8 mph - N/A   Mostly Cloudy
1:53 PM 84.0 °F 89.6 °F 72.0 °F 67% 29.86 in 10.0 mi South 12.7 mph 21.9 mph N/A   Scattered Clouds
2:53 PM 82.0 °F 86.7 °F 72.0 °F 71% 29.84 in 10.0 mi South 10.4 mph 23.0 mph N/A   Mostly Cloudy
3:53 PM 80.1 °F 83.8 °F 72.0 °F 76% 29.83 in 10.0 mi SSE 13.8 mph 25.3 mph N/A   Overcast
4:53 PM 82.9 °F 85.8 °F 68.0 °F 60% 29.84 in 10.0 mi SW 19.6 mph 25.3 mph N/A   Mostly Cloudy
5:53 PM 81.0 °F 84.1 °F 69.1 °F 67% 29.85 in 10.0 mi SW 11.5 mph 20.7 mph N/A   Mostly Cloudy
6:53 PM 81.0 °F 84.4 °F 70.0 °F 69% 29.87 in 10.0 mi SW 12.7 mph - N/A   Mostly Cloudy
7:53 PM 79.0 °F - 70.0 °F 74% 29.89 in 10.0 mi SW 6.9 mph - N/A   Clear
8:53 PM 79.0 °F - 71.1 °F 77% 29.90 in 10.0 mi SSW 5.8 mph - N/A   Overcast
9:53 PM 78.1 °F - 72.0 °F 81% 29.91 in 10.0 mi South 8.1 mph - N/A   Clear
10:53 PM 77.0 °F - 73.9 °F 90% 29.91 in 10.0 mi South 6.9 mph - N/A   Mostly Cloudy
11:53 PM 77.0 °F - 73.9 °F 90% 29.91 in 10.0 mi SSW 6.9 mph - N/A   Overcast